* Astronomy

Members Login
Username 
 
Password 
    Remember Me  
Post Info TOPIC: Asteroid 2011 WW95


L

Posts: 131433
Date:
Asteroid 2011 WW95
Permalink  
 


Orbital elements:
2011 WW95                                                Earth MOID = 0.1858 AU
Epoch 2011 Aug. 27.0 TT = JDT 2455800.5                 MPC
M 248.70204              (2000.0)            P               Q
n   0.65520825     Peri.  252.38102     -0.60268934     -0.58402914
a   1.3128541      Node   248.02468     +0.74489870     -0.65613121
e   0.2067252      Incl.   35.89931     -0.28616687     -0.47791400
P   1.50           H   23.2           G   0.15           U   9

MPEC 2011 - X07

The 62 - 140 metre wide asteroid 2011 WW95 will make a close pass (74.0 lunar distances, 0.1902 AU), travelling at 19.10 km/second, to the Earth-Moon system on the 4th December, 2011 @ 15:46 UT ±02:54.

See more

The Lunar Distance (LD), the distance between Earth and the Moon, equals 384,401 km, (or 0.00256 AU).



__________________
Page 1 of 1  sorted by
 
Quick Reply

Please log in to post quick replies.



Create your own FREE Forum
Report Abuse
Powered by ActiveBoard